GFSFLT2_prec_precacc_072.txt.gz
Total_Precipitation_Accumulation
9.81 6.42 5.75 5.01 5.56 3.48 1.20 0.49 0.32 0.28 0.14 0.06 0.03 0.00 0.00 0.00 0.00 0.00 0.00 0.00 0.00 0.00 0.00 0.00 0.00 0.00 0.00 0.00 0.00 0.00 0.00 0.01
6.53 5.01 4.35 4.20 4.25 4.89 3.21 1.81 0.65 0.39 0.21 0.13 0.05 0.00 0.00 0.00 0.00 0.00 0.00 0.00 0.00 0.00 0.00 0.00 0.00 0.00 0.00 0.00 0.00 0.00 0.00 0.00
3.42 2.17 1.36 1.68 1.88 2.41 2.90 2.74 1.84 0.74 0.38 0.14 0.08 0.04 0.00 0.00 0.00 0.00 0.00 0.00 0.00 0.00 0.00 0.00 0.00 0.00 0.00 0.00 0.00 0.00 0.00 0.00
1.26 0.72 0.27 0.23 0.43 0.66 1.18 1.83 1.96 1.22 0.65 0.17 0.09 0.03 0.00 0.00 0.00 0.00 0.00 0.00 0.00 0.00 0.00 0.00 0.00 0.00 0.00 0.00 0.00 0.00 0.00 0.00
0.73 0.49 0.26 0.15 0.15 0.21 0.33 0.66 1.15 1.05 0.61 0.15 0.04 0.01 0.01 0.02 0.00 0.00 0.00 0.00 0.00 0.00 0.00 0.00 0.00 0.00 0.00 0.00 0.00 0.00 0.00 0.00
0.31 0.34 0.34 0.46 0.30 0.21 0.19 0.24 0.35 0.47 0.27 0.07 0.01 0.02 0.04 0.00 0.00 0.00 0.00 0.00 0.00 0.00 0.00 0.00 0.00 0.00 0.00 0.00 0.00 0.00 0.00 0.00
0.36 0.16 0.24 0.22 0.22 0.23 0.19 0.25 0.16 0.21 0.16 0.04 0.00 0.00 0.00 0.00 0.00 0.00 0.00 0.00 0.00 0.00 0.00 0.00 0.00 0.00 0.00 0.00 0.00 0.00 0.00 0.00
0.45 0.39 0.34 0.29 0.21 0.28 0.26 0.25 0.19 0.21 0.29 0.15 0.04 0.02 0.01 0.00 0.00 0.00 0.00 0.00 0.00 0.00 0.00 0.00 0.00 0.00 0.00 0.00 0.00 0.00 0.00 0.00
0.60 0.99 0.48 0.33 0.26 0.29 0.29 0.13 0.09 0.19 0.26 0.21 0.07 0.02 0.04 0.02 0.00 0.00 0.00 0.00 0.00 0.00 0.00 0.00 0.00 0.00 0.00 0.00 0.00 0.00 0.00 0.00
0.64 1.22 0.82 0.41 0.21 0.25 0.26 0.20 0.16 0.22 0.24 0.17 0.15 0.11 0.09 0.04 0.01 0.00 0.00 0.00 0.00 0.00 0.00 0.00 0.00 0.00 0.00 0.00 0.00 0.00 0.00 0.00
0.48 0.74 0.91 0.85 0.65 0.61 0.37 0.16 0.15 0.24 0.21 0.16 0.09 0.08 0.08 0.04 0.02 0.00 0.00 0.00 0.00 0.00 0.00 0.00 0.00 0.00 0.00 0.00 0.00 0.00 0.00 0.00
0.56 0.69 1.12 1.40 0.77 0.27 0.18 0.22 0.17 0.21 0.15 0.11 0.10 0.06 0.08 0.02 0.01 0.01 0.00 0.00 0.00 0.00 0.00 0.00 0.00 0.00 0.00 0.00 0.00 0.00 0.00 0.00
0.63 0.99 0.95 0.41 0.19 0.09 0.12 0.13 0.23 0.27 0.20 0.16 0.15 0.08 0.13 0.11 0.07 0.10 0.01 0.01 0.00 0.00 0.00 0.00 0.00 0.00 0.00 0.00 0.00 0.00 0.00 0.00
0.32 0.14 0.12 0.03 0.04 0.06 0.08 0.11 0.15 0.20 0.15 0.13 0.23 0.16 0.12 0.08 0.13 0.27 0.13 0.10 0.02 0.02 0.00 0.00 0.00 0.00 0.00 0.00 0.00 0.00 0.00 0.00
0.06 0.08 0.13 0.04 0.02 0.02 0.02 0.08 0.14 0.11 0.18 0.18 0.17 0.16 0.21 0.15 0.19 0.21 0.15 0.08 0.03 0.01 0.01 0.00 0.00 0.01 0.00 0.01 0.01 0.01 0.00 0.00
0.06 0.11 0.14 0.04 0.01 0.00 0.02 0.06 0.09 0.16 0.17 0.13 0.10 0.10 0.12 0.12 0.15 0.16 0.18 0.13 0.12 0.07 0.02 0.02 0.05 0.09 0.10 0.09 0.07 0.05 0.07 0.06
0.08 0.11 0.15 0.08 0.01 0.06 0.12 0.14 0.15 0.16 0.13 0.10 0.08 0.08 0.07 0.05 0.04 0.03 0.03 0.04 0.06 0.08 0.08 0.15 0.23 0.26 0.28 0.20 0.16 0.16 0.17 0.19
0.10 0.12 0.19 0.09 0.06 0.07 0.13 0.17 0.14 0.10 0.08 0.09 0.06 0.07 0.08 0.07 0.05 0.04 0.04 0.07 0.07 0.16 0.34 0.35 0.31 0.28 0.29 0.26 0.19 0.20 0.19 0.19
0.08 0.07 0.09 0.09 0.12 0.07 0.05 0.12 0.16 0.16 0.12 0.17 0.12 0.07 0.06 0.15 0.22 0.19 0.13 0.16 0.28 0.26 0.21 0.23 0.28 0.30 0.32 0.34 0.29 0.19 0.16 0.15
0.12 0.11 0.11 0.07 0.11 0.16 0.20 0.25 0.31 0.37 0.36 0.31 0.19 0.21 0.24 0.39 0.52 0.55 0.47 0.35 0.33 0.38 0.41 0.44 0.43 0.36 0.33 0.33 0.31 0.31 0.32 0.34

GFSFLT2_prec_precacc_075.txt.gz
Total_Precipitation_Accumulation
10.10 6.65 6.02 5.17 5.64 3.55 1.24 0.53 0.60 0.55 0.24 0.07 0.03 0.00 0.00 0.00 0.00 0.00 0.00 0.00 0.00 0.00 0.00 0.00 0.00 0.00 0.00 0.00 0.00 0.00 0.00 0.01
6.70 5.20 4.53 4.25 4.34 4.92 3.22 1.85 0.85 0.74 0.30 0.14 0.05 0.00 0.00 0.00 0.00 0.00 0.00 0.00 0.00 0.00 0.00 0.00 0.00 0.00 0.00 0.00 0.00 0.00 0.00 0.00
3.46 2.30 1.49 1.76 1.89 2.41 2.90 2.77 2.05 1.36 0.73 0.17 0.08 0.04 0.00 0.00 0.00 0.00 0.00 0.00 0.00 0.00 0.00 0.00 0.00 0.00 0.00 0.00 0.00 0.00 0.00 0.00
1.27 0.72 0.31 0.29 0.43 0.66 1.18 1.92 2.23 1.73 1.09 0.26 0.09 0.03 0.00 0.00 0.00 0.00 0.00 0.00 0.00 0.00 0.00 0.00 0.00 0.00 0.00 0.00 0.00 0.00 0.00 0.00
0.74 0.50 0.27 0.19 0.16 0.21 0.35 0.96 1.71 1.61 0.99 0.25 0.04 0.01 0.01 0.02 0.00 0.00 0.00 0.00 0.00 0.00 0.00 0.00 0.00 0.00 0.00 0.00 0.00 0.00 0.00 0.00
0.31 0.34 0.34 0.46 0.30 0.21 0.21 0.58 1.07 0.96 0.41 0.10 0.01 0.02 0.04 0.00 0.00 0.00 0.00 0.00 0.00 0.00 0.00 0.00 0.00 0.00 0.00 0.00 0.00 0.00 0.00 0.00
0.36 0.16 0.24 0.22 0.22 0.23 0.20 0.49 0.46 0.41 0.24 0.05 0.00 0.00 0.00 0.00 0.00 0.00 0.00 0.00 0.00 0.00 0.00 0.00 0.00 0.00 0.00 0.00 0.00 0.00 0.00 0.00
0.45 0.39 0.34 0.29 0.21 0.28 0.26 0.39 0.43 0.30 0.34 0.15 0.04 0.02 0.01 0.00 0.00 0.00 0.00 0.00 0.00 0.00 0.00 0.00 0.00 0.00 0.00 0.00 0.00 0.00 0.00 0.00
0.60 1.00 0.49 0.33 0.26 0.30 0.30 0.21 0.28 0.31 0.29 0.21 0.07 0.02 0.04 0.02 0.00 0.00 0.00 0.00 0.00 0.00 0.00 0.00 0.00 0.00 0.00 0.00 0.00 0.00 0.00 0.00
0.65 1.25 0.92 0.46 0.24 0.26 0.26 0.27 0.29 0.33 0.24 0.17 0.15 0.11 0.09 0.04 0.01 0.00 0.00 0.00 0.00 0.00 0.00 0.00 0.00 0.00 0.00 0.00 0.00 0.00 0.00 0.00
0.48 0.78 1.04 0.93 0.69 0.61 0.38 0.21 0.31 0.35 0.22 0.16 0.09 0.08 0.08 0.04 0.02 0.00 0.00 0.00 0.00 0.00 0.00 0.00 0.00 0.00 0.00 0.00 0.00 0.00 0.00 0.00
0.56 0.70 1.18 1.54 0.80 0.31 0.23 0.30 0.35 0.36 0.18 0.11 0.10 0.06 0.08 0.02 0.01 0.01 0.00 0.00 0.00 0.00 0.00 0.00 0.00 0.00 0.00 0.00 0.00 0.00 0.00 0.00
0.63 0.99 0.95 0.46 0.21 0.10 0.15 0.23 0.39 0.46 0.31 0.16 0.15 0.08 0.13 0.11 0.07 0.10 0.01 0.01 0.00 0.01 0.01 0.00 0.00 0.00 0.00 0.00 0.00 0.00 0.00 0.00
0.32 0.14 0.12 0.03 0.04 0.06 0.09 0.14 0.24 0.33 0.30 0.14 0.23 0.16 0.12 0.08 0.13 0.27 0.14 0.10 0.02 0.02 0.01 0.01 0.01 0.00 0.00 0.00 0.00 0.00 0.00 0.00
0.06 0.08 0.13 0.04 0.02 0.02 0.05 0.21 0.27 0.21 0.32 0.21 0.17 0.16 0.21 0.15 0.19 0.23 0.16 0.09 0.05 0.02 0.01 0.00 0.00 0.01 0.01 0.01 0.01 0.01 0.00 0.00
0.06 0.11 0.14 0.04 0.01 0.00 0.02 0.11 0.16 0.21 0.20 0.16 0.11 0.10 0.13 0.13 0.15 0.17 0.21 0.16 0.13 0.08 0.02 0.02 0.05 0.09 0.11 0.09 0.08 0.05 0.07 0.06
0.08 0.11 0.15 0.08 0.01 0.06 0.12 0.14 0.16 0.20 0.16 0.12 0.09 0.08 0.07 0.06 0.05 0.05 0.04 0.06 0.08 0.11 0.12 0.17 0.24 0.27 0.28 0.20 0.16 0.16 0.17 0.19
0.10 0.12 0.19 0.09 0.06 0.07 0.13 0.17 0.14 0.10 0.08 0.09 0.06 0.07 0.08 0.07 0.05 0.05 0.04 0.07 0.08 0.18 0.39 0.37 0.32 0.30 0.31 0.27 0.21 0.21 0.19 0.20
0.08 0.07 0.09 0.09 0.12 0.07 0.05 0.12 0.16 0.16 0.12 0.17 0.12 0.07 0.06 0.15 0.22 0.19 0.13 0.16 0.28 0.26 0.23 0.26 0.31 0.33 0.36 0.39 0.33 0.22 0.18 0.18
0.12 0.11 0.11 0.07 0.11 0.16 0.20 0.25 0.31 0.37 0.36 0.31 0.19 0.21 0.24 0.39 0.52 0.55 0.47 0.35 0.33 0.38 0.41 0.44 0.44 0.38 0.35 0.34 0.32 0.32 0.35 0.37

GFSFLT2_prec_precacc_078.txt.gz
Total_Precipitation_Accumulation
10.29 6.81 6.17 5.31 5.72 3.62 1.32 0.61 0.67 0.67 0.39 0.26 0.16 0.05 0.00 0.01 0.00 0.00 0.00 0.00 0.00 0.00 0.00 0.00 0.00 0.00 0.00 0.00 0.00 0.00 0.00 0.01
6.78 5.31 4.65 4.28 4.38 4.97 3.26 1.87 0.93 0.95 0.47 0.25 0.14 0.06 0.02 0.00 0.00 0.00 0.00 0.00 0.00 0.00 0.00 0.00 0.00 0.00 0.00 0.00 0.00 0.00 0.00 0.00
3.53 2.40 1.61 1.83 1.97 2.45 2.94 2.78 2.12 1.66 1.47 0.51 0.20 0.11 0.03 0.00 0.00 0.00 0.00 0.00 0.00 0.00 0.00 0.00 0.00 0.00 0.00 0.00 0.00 0.00 0.00 0.00
1.27 0.77 0.40 0.44 0.56 0.73 1.21 1.95 2.26 1.95 2.35 1.01 0.28 0.10 0.02 0.00 0.00 0.00 0.00 0.00 0.00 0.00 0.00 0.00 0.00 0.00 0.00 0.00 0.00 0.00 0.00 0.00
0.74 0.50 0.28 0.29 0.23 0.25 0.37 0.96 1.74 1.95 1.97 1.13 0.20 0.10 0.02 0.02 0.00 0.00 0.00 0.00 0.00 0.00 0.00 0.00 0.00 0.00 0.00 0.00 0.00 0.00 0.00 0.00
0.32 0.35 0.35 0.47 0.31 0.22 0.22 0.59 1.29 1.51 1.08 0.52 0.14 0.06 0.04 0.00 0.00 0.00 0.00 0.00 0.00 0.00 0.00 0.00 0.00 0.00 0.00 0.00 0.00 0.00 0.00 0.00
0.37 0.16 0.24 0.22 0.22 0.23 0.21 0.52 0.68 0.86 0.68 0.13 0.03 0.01 0.00 0.00 0.00 0.00 0.00 0.00 0.00 0.00 0.00 0.00 0.00 0.00 0.00 0.00 0.00 0.00 0.00 0.00
0.46 0.40 0.34 0.29 0.21 0.28 0.29 0.44 0.75 0.60 0.57 0.23 0.06 0.03 0.01 0.00 0.00 0.00 0.00 0.00 0.00 0.00 0.00 0.00 0.00 0.00 0.00 0.00 0.00 0.00 0.00 0.00
0.61 1.01 0.49 0.33 0.26 0.31 0.33 0.24 0.39 0.55 0.40 0.26 0.08 0.02 0.04 0.02 0.00 0.00 0.00 0.00 0.00 0.00 0.00 0.00 0.00 0.00 0.00 0.00 0.00 0.00 0.00 0.00
0.66 1.26 0.92 0.47 0.25 0.30 0.35 0.43 0.36 0.42 0.30 0.18 0.15 0.11 0.09 0.04 0.01 0.00 0.00 0.00 0.00 0.00 0.00 0.00 0.00 0.00 0.00 0.00 0.00 0.00 0.00 0.00
0.49 0.78 1.06 0.95 0.71 0.67 0.46 0.39 0.42 0.37 0.24 0.16 0.09 0.08 0.08 0.04 0.02 0.00 0.00 0.00 0.00 0.00 0.00 0.00 0.00 0.00 0.00 0.00 0.00 0.00 0.00 0.00
0.57 0.70 1.20 1.57 0.84 0.32 0.33 0.50 0.47 0.39 0.18 0.11 0.10 0.06 0.08 0.02 0.01 0.01 0.00 0.00 0.00 0.00 0.00 0.00 0.00 0.00 0.00 0.00 0.00 0.00 0.00 0.00
0.64 0.99 0.96 0.47 0.22 0.11 0.21 0.40 0.51 0.49 0.31 0.16 0.15 0.08 0.13 0.11 0.07 0.10 0.01 0.01 0.00 0.01 0.01 0.00 0.00 0.00 0.00 0.00 0.00 0.00 0.00 0.00
0.33 0.15 0.12 0.03 0.05 0.06 0.09 0.19 0.39 0.39 0.31 0.14 0.23 0.16 0.12 0.08 0.13 0.27 0.14 0.10 0.02 0.02 0.02 0.02 0.03 0.02 0.01 0.00 0.00 0.00 0.00 0.00
0.06 0.08 0.13 0.04 0.02 0.03 0.05 0.23 0.39 0.31 0.36 0.22 0.17 0.16 0.22 0.15 0.19 0.23 0.16 0.09 0.05 0.02 0.01 0.00 0.01 0.02 0.02 0.02 0.03 0.03 0.02 0.00
0.06 0.12 0.15 0.04 0.01 0.01 0.02 0.11 0.20 0.23 0.21 0.16 0.12 0.10 0.13 0.13 0.15 0.17 0.21 0.16 0.13 0.08 0.04 0.03 0.05 0.09 0.11 0.09 0.10 0.08 0.10 0.10
0.08 0.11 0.15 0.08 0.01 0.06 0.12 0.15 0.17 0.21 0.19 0.14 0.10 0.09 0.08 0.06 0.05 0.05 0.04 0.06 0.08 0.12 0.13 0.17 0.24 0.27 0.29 0.21 0.16 0.17 0.18 0.20
0.10 0.12 0.19 0.09 0.06 0.07 0.13 0.17 0.15 0.12 0.10 0.10 0.06 0.07 0.08 0.07 0.05 0.05 0.05 0.07 0.09 0.20 0.42 0.39 0.33 0.32 0.35 0.29 0.21 0.22 0.21 0.21
0.08 0.07 0.09 0.09 0.12 0.07 0.05 0.12 0.16 0.16 0.12 0.17 0.12 0.07 0.06 0.15 0.22 0.19 0.15 0.17 0.32 0.33 0.29 0.31 0.33 0.35 0.37 0.39 0.33 0.23 0.20 0.21
0.12 0.11 0.11 0.07 0.11 0.16 0.20 0.25 0.31 0.37 0.36 0.31 0.19 0.21 0.24 0.39 0.53 0.56 0.47 0.37 0.36 0.42 0.45 0.47 0.45 0.39 0.35 0.34 0.32 0.32 0.36 0.39

GFSFLT2_prec_precacc_084.txt.gz
Total_Precipitation_Accumulation
10.32 6.89 6.24 5.55 6.18 3.88 1.55 1.45 1.45 1.69 1.78 1.30 1.11 0.77 0.14 0.04 0.06 0.05 0.00 0.00 0.00 0.00 0.00 0.00 0.00 0.00 0.00 0.00 0.00 0.00 0.00 0.01
6.82 5.46 4.74 4.34 4.46 5.04 3.39 2.14 1.71 1.50 1.31 0.97 0.73 0.95 0.63 0.14 0.03 0.05 0.02 0.00 0.00 0.00 0.00 0.00 0.00 0.00 0.00 0.00 0.00 0.00 0.00 0.00
3.54 2.43 1.70 1.94 2.04 2.48 3.03 2.92 2.35 2.38 2.36 1.13 0.64 0.59 0.72 0.31 0.09 0.02 0.01 0.00 0.00 0.00 0.00 0.00 0.00 0.00 0.00 0.00 0.00 0.00 0.00 0.00
1.28 0.79 0.43 0.47 0.60 0.75 1.23 1.99 2.35 2.08 3.31 1.63 0.91 0.58 0.33 0.38 0.30 0.05 0.00 0.00 0.00 0.00 0.00 0.00 0.00 0.00 0.00 0.00 0.00 0.00 0.00 0.00
0.74 0.51 0.29 0.32 0.26 0.30 0.46 1.08 1.89 2.14 2.24 1.62 0.76 0.61 0.57 0.41 0.43 0.18 0.01 0.00 0.00 0.00 0.00 0.00 0.00 0.00 0.00 0.00 0.00 0.00 0.00 0.00
0.32 0.35 0.35 0.50 0.36 0.25 0.29 0.69 1.44 1.66 1.29 1.03 0.72 0.45 0.40 0.27 0.31 0.23 0.02 0.00 0.00 0.00 0.00 0.00 0.00 0.00 0.00 0.00 0.00 0.00 0.00 0.00
0.39 0.18 0.25 0.23 0.22 0.24 0.22 0.57 0.78 1.00 0.88 0.36 0.66 0.31 0.16 0.16 0.24 0.20 0.01 0.00 0.00 0.00 0.00 0.00 0.00 0.00 0.00 0.00 0.00 0.00 0.00 0.00
0.47 0.41 0.35 0.30 0.23 0.31 0.30 0.45 0.80 0.70 0.80 0.31 0.22 0.20 0.21 0.17 0.17 0.12 0.00 0.00 0.00 0.00 0.00 0.00 0.00 0.00 0.00 0.00 0.00 0.00 0.00 0.00
0.62 1.02 0.50 0.34 0.27 0.31 0.34 0.25 0.43 0.64 0.73 0.45 0.19 0.09 0.13 0.10 0.13 0.10 0.02 0.00 0.00 0.00 0.00 0.00 0.00 0.00 0.00 0.00 0.00 0.00 0.00 0.00
0.66 1.27 0.93 0.48 0.27 0.32 0.37 0.47 0.43 0.51 0.54 0.47 0.26 0.18 0.14 0.11 0.14 0.16 0.09 0.01 0.00 0.00 0.00 0.00 0.00 0.00 0.00 0.00 0.00 0.00 0.00 0.00
0.50 0.80 1.08 0.97 0.76 0.71 0.56 0.47 0.52 0.47 0.35 0.34 0.20 0.18 0.20 0.09 0.12 0.14 0.15 0.05 0.00 0.00 0.00 0.00 0.00 0.00 0.00 0.00 0.00 0.00 0.00 0.00
0.58 0.72 1.21 1.58 0.87 0.34 0.41 0.63 0.53 0.47 0.28 0.23 0.24 0.16 0.20 0.11 0.12 0.08 0.04 0.03 0.00 0.00 0.00 0.00 0.00 0.00 0.00 0.00 0.00 0.00 0.00 0.00
0.64 1.00 0.97 0.47 0.23 0.13 0.26 0.46 0.59 0.52 0.35 0.22 0.22 0.17 0.17 0.19 0.15 0.16 0.04 0.02 0.01 0.01 0.01 0.00 0.00 0.00 0.00 0.00 0.00 0.00 0.00 0.00
0.33 0.15 0.13 0.04 0.06 0.08 0.11 0.20 0.41 0.40 0.33 0.15 0.25 0.17 0.14 0.10 0.14 0.28 0.14 0.11 0.02 0.02 0.02 0.02 0.03 0.02 0.01 0.00 0.01 0.01 0.00 0.00
0.06 0.08 0.14 0.05 0.03 0.05 0.09 0.27 0.42 0.33 0.37 0.22 0.18 0.17 0.22 0.15 0.19 0.23 0.16 0.09 0.05 0.02 0.01 0.00 0.01 0.03 0.03 0.04 0.12 0.12 0.07 0.01
0.06 0.12 0.15 0.05 0.02 0.02 0.04 0.13 0.23 0.24 0.21 0.17 0.12 0.10 0.13 0.13 0.16 0.17 0.21 0.16 0.14 0.08 0.05 0.04 0.07 0.11 0.11 0.11 0.17 0.19 0.21 0.18
0.08 0.12 0.16 0.08 0.01 0.07 0.14 0.16 0.19 0.23 0.19 0.14 0.10 0.09 0.08 0.06 0.05 0.05 0.04 0.07 0.10 0.13 0.14 0.20 0.28 0.35 0.31 0.22 0.17 0.21 0.24 0.22
0.10 0.13 0.19 0.10 0.07 0.08 0.14 0.18 0.16 0.15 0.11 0.10 0.06 0.07 0.08 0.07 0.05 0.05 0.05 0.08 0.12 0.24 0.48 0.44 0.38 0.43 0.50 0.44 0.24 0.22 0.22 0.21
0.08 0.07 0.10 0.09 0.13 0.07 0.06 0.13 0.16 0.16 0.13 0.17 0.12 0.07 0.06 0.15 0.22 0.19 0.15 0.18 0.34 0.42 0.46 0.40 0.44 0.48 0.55 0.52 0.44 0.29 0.24 0.26
0.12 0.11 0.11 0.07 0.11 0.17 0.21 0.26 0.31 0.37 0.36 0.31 0.19 0.21 0.24 0.39 0.53 0.56 0.47 0.37 0.37 0.48 0.57 0.55 0.57 0.48 0.47 0.43 0.38 0.35 0.37 0.41